Lid_Strength_Index
-0 0 -1 2 7 7 9 8 6 7 7 5 4 6 6 5 7 10 1 -0 -1 -1 -2 -1 -1 -1 -1 -1 -1 -1 -1 -1 -1 -1 -1 -1 -1 -1 -1 -1 -1 -1 -1 -1 -1 -1 -1 -1 -1
2 2 1 4 8 10 9 7 8 6 5 4 5 5 6 7 4 3 2 -0 -1 -1 -2 -2 -2 -2 -1 -1 -1 -1 -1 -1 -1 -1 -1 -1 -1 -1 -1 -1 -1 -1 -1 -1 -1 -1 -1 -1 -1
1 2 4 6 7 10 9 7 6 6 5 5 6 4 5 6 3 2 0 -1 -1 -1 -2 -2 -2 -2 -1 -1 -1 -1 -1 -1 -1 -1 -1 -1 -1 -1 -1 -1 -1 -1 -1 -1 -1 -1 -1 -1 -1
4 3 3 7 9 7 7 6 6 6 5 4 4 6 4 2 2 1 -0 -1 -1 -1 -1 -2 -2 -1 -2 -1 -1 -1 -1 -1 -1 -1 -1 -1 -1 -1 -1 -1 -1 -1 -1 -1 -1 -1 -1 -1 -1
3 4 7 7 8 7 6 5 5 6 6 5 5 6 6 2 1 0 -0 -0 -0 -1 -1 -1 -1 -1 -1 -1 -1 -1 -1 -1 -1 -1 -1 -1 -1 -1 -1 -1 -1 -1 -1 -1 -1 -1 -1 -1 -1
4 4 8 9 8 6 5 5 5 6 5 5 5 5 5 1 1 0 -0 -0 -1 -1 -1 -2 -1 -1 -1 -2 -1 -1 -1 -1 -2 -1 -1 -1 -1 -1 -1 -1 -1 -1 -1 -1 -1 -1 -1 -1 -1
5 5 7 7 8 7 6 4 5 5 5 5 4 6 4 3 1 0 -0 -1 -1 -1 -1 -1 -1 -2 -1 -1 -1 -1 -1 -1 -1 -1 -1 -1 -1 -1 -1 -1 -1 -1 -1 -1 -1 -1 -1 -1 -1
3 5 7 7 8 8 5 5 4 5 6 3 3 6 6 3 1 0 -0 -0 -0 -1 -1 -1 -1 -1 -2 -2 -1 -1 -1 -1 -1 -1 -1 -1 -2 -2 -1 -2 -1 -1 -1 -1 -1 -1 -1 -1 -1
4 6 7 8 8 7 5 5 4 3 4 4 3 4 2 1 1 1 1 1 0 -0 -1 -1 -1 -1 -1 -1 -1 -1 -1 -1 -1 -1 -1 -2 -2 -2 -2 -2 -2 -1 -1 -1 -1 -1 -1 -1 -1
5 7 7 6 5 6 6 6 5 5 5 5 5 3 2 2 2 2 2 2 1 1 -0 -1 -1 -1 -1 -1 -2 -2 -2 -2 -2 -2 -2 -2 -2 -2 -2 -2 -1 -2 -2 -1 -1 -1 -1 -2 -2
5 7 6 7 7 6 6 6 6 5 5 4 5 4 3 2 2 2 2 1 1 0 -0 -0 -1 -2 -1 -1 -1 -1 -1 -2 -2 -2 -2 -2 -2 -2 -2 -2 -2 -2 -2 -2 -2 -2 -2 -1 -2
6 6 6 6 6 6 6 5 7 6 4 3 3 3 3 3 3 2 2 1 1 0 0 -1 -1 -1 -1 -1 -1 -1 -1 -1 -1 -2 -2 -2 -1 -1 -2 -1 -2 -2 -2 -2 -2 -2 -2 -2 -2
6 6 6 6 6 6 5 6 6 5 3 3 3 3 3 3 2 2 1 1 0 1 -0 -0 -1 -1 -1 -1 -1 -1 -1 -1 -2 -2 -2 -2 -1 -1 -1 -2 -1 -2 -2 -1 -1 -1 -1 -1 -1
5 6 6 6 6 5 6 5 4 4 3 3 3 3 3 3 2 2 1 1 1 0 -0 -0 -1 -1 -1 -1 -1 -1 -1 -2 -2 -2 -2 -2 -2 -2 -1 -1 -1 -1 -2 -1 -1 -1 -1 -1 -1
5 8 7 6 5 5 4 5 6 4 4 4 4 3 3 3 2 2 1 1 1 0 -0 -1 -1 -1 -1 -1 -1 -1 -1 -1 -1 -1 -2 -2 -2 -2 -2 -1 -1 -1 -2 -2 -2 -1 -1 -1 -1
7 8 8 5 6 4 4 7 5 4 4 4 4 4 3 3 2 1 1 1 0 0 0 -0 -1 -1 -1 -1 -1 -1 -1 -1 -1 -1 -2 -2 -2 -2 -2 -1 -1 -1 -1 -1 -1 -1 -0 -0 -0
8 9 8 7 6 5 5 7 4 4 4 4 4 4 4 3 2 1 1 1 0 0 -0 -0 -1 -1 -1 -1 -1 -1 -2 -1 -1 -2 -2 -2 -2 -2 -1 -1 -1 -2 -1 -1 -1 -0 -1 0 -0
10 10 8 7 6 5 6 6 5 5 4 4 4 4 4 3 3 2 1 1 0 0 -0 -0 -0 -1 -1 -1 -1 -1 -1 -1 -1 -1 -1 -2 -2 -2 -2 -1 -1 -1 -1 -0 -0 -0 -0 -0 -0
9 9 8 7 6 7 6 6 6 4 4 5 5 4 4 3 2 2 1 1 0 0 0 0 0 -1 -0 0 1 0 1 -0 -0 -1 -2 -2 -2 -2 -2 -1 -1 -1 -0 -0 -1 -0 0 1 0
9 9 9 8 7 7 7 7 5 5 5 5 5 5 4 3 3 2 2 1 1 1 0 0 0 -0 0 0 -0 0 -0 -0 -0 -1 -1 -2 -2 -2 -1 -1 -1 -1 -0 -1 -0 -0 1 1 0
9 10 9 9 8 8 8 8 6 6 5 5 5 4 4 4 3 3 2 2 1 1 1 1 0 0 0 -0 -0 -0 -0 -0 0 -0 -0 -1 -1 -1 -2 -1 -1 -1 -1 0 -0 -0 1 2 1
9 8 9 9 9 10 7 10 8 7 7 6 5 5 4 4 3 2 2 2 1 1 0 0 0 0 -0 -0 0 1 1 2 1 0 -0 -1 -1 -1 -1 -1 -1 -1 -0 0 0 -0 0 1 2
8 8 8 9 9 8 8 9 9 7 9 8 6 5 4 4 3 3 3 2 1 1 1 -0 -0 -0 -0 -0 -0 1 1 1 0 0 -1 -1 -1 -1 -1 -1 -1 -0 0 0 0 0 1 0 1
6 7 8 8 9 12 8 9 11 10 10 8 6 5 4 4 4 3 2 2 2 1 1 1 0 0 -0 -0 -0 0 0 0 1 0 1 0 -0 -0 -1 -1 -1 -1 -1 -0 -0 0 1 1 1
6 7 10 11 12 11 8 9 12 9 7 7 6 5 5 4 4 4 3 3 2 2 2 1 1 1 0 0 -0 0 0 0 0 0 1 0 1 0 -0 -1 -1 -1 -1 -1 -0 0 1 1 1
7 7 10 13 12 11 8 11 11 7 6 5 5 5 5 5 4 4 3 3 3 2 2 1 1 1 0 0 0 -1 -0 0 0 -0 0 1 1 0 -1 -1 -1 -1 -1 -1 -0 0 1 0 0
7 8 6 9 8 10 10 11 9 7 7 6 6 6 6 5 4 4 3 3 3 3 2 2 1 1 1 1 0 0 -0 -0 0 -0 -0 -0 -1 -0 -1 -1 -0 -1 -1 -0 -0 0 1 2 3
6 5 9 8 12 13 12 12 11 9 8 7 7 7 6 5 4 4 3 3 2 2 2 2 2 2 1 1 1 1 0 -0 -0 -0 -0 -0 -0 -0 -0 -0 -0 0 1 1 1 2 2 3 3
7 8 7 7 9 11 13 11 7 8 7 7 8 7 6 5 5 4 3 2 2 2 2 2 2 2 1 1 1 0 1 -0 -0 0 0 0 1 1 1 1 1 2 1 2 3 3 3 4 4
6 7 7 10 11 9 10 12 6 7 7 7 7 7 6 5 4 4 3 2 2 2 1 2 1 1 1 1 1 1 1 1 1 1 1 1 0 -0 0 1 1 2 2 3 3 4 4 4 4